Weather History for KSDY - January, 2013

Change the Weather History Date:

Tuesday, January 8, 2013

  Actual Average (KISN) Record (KISN)
Temperature  
Mean Temperature 29 °F 10 °F  
Max Temperature 37 °F 21 °F 50 °F (2002)
Min Temperature 21 °F 1 °F -35 °F (1909)
Degree Days  
Heating Degree Days 36 55  
Month to date heating degree days 437  
Since 1 July heating degree days 4184  
Cooling Degree Days 0 0  
Month to date cooling degree days 0  
Year to date cooling degree days 0  
Moisture  
Dew Point 24 °F    
Average Humidity 78    
Maximum Humidity 100    
Minimum Humidity 69    
Precipitation  
Precipitation 0.00 in 0.02 in 0.37 in (2009)
Month to date precipitation 0.17  
Year to date precipitation 0.17  
Sea Level Pressure  
Sea Level Pressure 29.75 in    
Wind  
Wind Speed 13 mph (WSW)    
Max Wind Speed 23 mph    
Max Gust Speed 32 mph    
Visibility 9 miles    
Events      
T = Trace of Precipitation, MM = Missing Value Source: NWS Daily Summary

Daily Weather History Graph

Daily Weather History Graph

Search for Another Location

Airport or City:

Trip Planner

Search our weather history database for the weather conditions in past years. The results will help you decide how hot, cold, wet, or windy it might be!

Date:

Astronomy

Jan. 08, 2013 Rise Set
Actual Time 7:44 AM MST 4:23 PM MST
Civil Twilight 7:08 AM MST 4:59 PM MST
Nautical Twilight 6:29 AM MST 5:37 PM MST
Astronomical Twilight 5:52 AM MST 6:15 PM MST
Moon 4:18 AM MST (1/8) 1:28 PM MST (1/8)
Length of Visible Light 9h 50m
Length of Day
8h 39m
Waning Crescent, 13% of the Moon is Illuminated
Jan 8
Waning Crescent
Jan 11
New
Jan 18
First Quarter
Jan 26
Full
Feb 3
Last Quarter

Hourly Weather History & Observations

Time (MST) Temp. Windchill Dew Point Humidity Pressure Visibility Wind Dir Wind Speed Gust Speed Precip Events Conditions
12:15 AM 21.2 °F 14.9 °F 19.4 °F 93% 29.64 in 10.0 mi SSW 4.6 mph - N/A   Overcast
12:35 AM 21.2 °F 12.6 °F 19.4 °F 93% 29.63 in 10.0 mi South 6.9 mph - N/A   Overcast
12:55 AM 24.8 °F 15.3 °F 19.4 °F 80% 29.63 in 10.0 mi SSW 9.2 mph - N/A   Overcast
1:15 AM 24.8 °F 14.6 °F 21.2 °F 86% 29.62 in 2.5 mi SSW 10.4 mph - N/A   Overcast
1:35 AM 24.8 °F 17.9 °F 21.2 °F 86% 29.62 in 1.8 mi South 5.8 mph - N/A   Overcast
1:55 AM 24.8 °F 16.9 °F 21.2 °F 86% 29.61 in 0.5 mi South 6.9 mph - N/A   Overcast
2:15 AM 24.8 °F 15.3 °F 23.0 °F 93% 29.61 in 2.0 mi South 9.2 mph - N/A   Overcast
2:35 AM 26.6 °F 17.5 °F 26.6 °F 100% 29.60 in 1.5 mi South 9.2 mph - N/A   Overcast
2:55 AM 28.4 °F 19.1 °F 28.4 °F 100% 29.59 in 7.0 mi South 10.4 mph - N/A   Overcast
3:15 AM 28.4 °F 19.7 °F 28.4 °F 100% 29.58 in 10.0 mi SSW 9.2 mph - N/A   Overcast
3:35 AM 30.2 °F 19.3 °F 28.4 °F 93% 29.57 in 10.0 mi SSW 15.0 mph - N/A   Overcast
3:55 AM 30.2 °F 19.3 °F 28.4 °F 93% 29.56 in 10.0 mi SSW 15.0 mph - N/A   Overcast
4:15 AM 30.2 °F 18.9 °F 30.2 °F 100% 29.56 in 10.0 mi SSW 16.1 mph - N/A   Overcast
4:35 AM 30.2 °F 19.8 °F 28.4 °F 93% 29.56 in 10.0 mi SSW 13.8 mph - N/A   Partly Cloudy
4:55 AM 30.2 °F 21.9 °F 28.4 °F 93% 29.57 in 10.0 mi SSW 9.2 mph - N/A   Mostly Cloudy
5:15 AM 30.2 °F 21.9 °F 26.6 °F 86% 29.57 in 10.0 mi WSW 9.2 mph - N/A   Partly Cloudy
5:35 AM 35.6 °F 24.8 °F 28.4 °F 75% 29.57 in 10.0 mi West 19.6 mph - N/A   Clear
5:55 AM 35.6 °F 24.5 °F 28.4 °F 75% 29.58 in 10.0 mi West 20.7 mph 26.5 mph N/A   Clear
6:15 AM 37.4 °F 27.2 °F 28.4 °F 70% 29.59 in 10.0 mi West 19.6 mph - N/A   Clear
6:35 AM 35.6 °F 24.5 °F 26.6 °F 70% 29.60 in 10.0 mi West 20.7 mph 25.3 mph N/A   Clear
7:15 AM 35.6 °F 25.5 °F 26.6 °F 70% 29.62 in 10.0 mi West 17.3 mph - N/A   Clear
7:35 AM 33.8 °F 23.5 °F 26.6 °F 75% 29.63 in 10.0 mi West 16.1 mph - N/A   Clear
8:15 AM 32.0 °F 21.6 °F 24.8 °F 75% 29.66 in 10.0 mi West 15.0 mph - N/A   Clear
8:35 AM 32.0 °F 21.6 °F 24.8 °F 75% 29.68 in 10.0 mi West 15.0 mph - N/A   Clear
8:55 AM 32.0 °F 22.5 °F 24.8 °F 75% 29.68 in 10.0 mi West 12.7 mph - N/A   Clear
9:15 AM 32.0 °F 22.1 °F 24.8 °F 75% 29.69 in 10.0 mi West 13.8 mph - N/A   Clear
9:35 AM 35.6 °F 25.2 °F 26.6 °F 70% 29.68 in 10.0 mi West 18.4 mph 23.0 mph N/A   Partly Cloudy
9:55 AM 33.8 °F 22.8 °F 26.6 °F 75% 29.70 in 10.0 mi West 18.4 mph - N/A   Partly Cloudy
10:15 AM 35.6 °F 24.5 °F 26.6 °F 70% 29.71 in 10.0 mi West 20.7 mph 25.3 mph N/A   Mostly Cloudy
10:35 AM 33.8 °F 22.8 °F 26.6 °F 75% 29.71 in 10.0 mi West 18.4 mph - N/A   Partly Cloudy
10:55 AM 35.6 °F 25.5 °F 26.6 °F 70% 29.72 in 10.0 mi West 17.3 mph - N/A   Partly Cloudy
11:55 AM 35.6 °F 25.5 °F 26.6 °F 70% 29.73 in 10.0 mi West 17.3 mph - N/A   Scattered Clouds
12:15 PM 35.6 °F 25.2 °F 28.4 °F 75% 29.74 in 10.0 mi West 18.4 mph - N/A   Scattered Clouds
1:15 PM 37.4 °F 27.2 °F 28.4 °F 70% 29.76 in 10.0 mi West 19.6 mph - N/A   Mostly Cloudy
1:35 PM 37.4 °F 26.9 °F 28.4 °F 70% 29.77 in 10.0 mi West 20.7 mph - N/A   Overcast
1:55 PM 35.6 °F 24.2 °F 28.4 °F 75% 29.78 in 10.0 mi West 21.9 mph 26.5 mph N/A   Overcast
2:35 PM 35.6 °F 24.5 °F 28.4 °F 75% 29.81 in 10.0 mi West 20.7 mph 25.3 mph N/A   Overcast
2:55 PM 35.6 °F 25.2 °F 26.6 °F 70% 29.81 in 10.0 mi West 18.4 mph - N/A   Overcast
3:15 PM 35.6 °F 25.5 °F 26.6 °F 70% 29.82 in 10.0 mi West 17.3 mph - N/A   Mostly Cloudy
3:35 PM 35.6 °F 25.5 °F 26.6 °F 70% 29.82 in 10.0 mi West 17.3 mph 21.9 mph N/A   Overcast
3:55 PM 35.6 °F 25.5 °F 26.6 °F 70% 29.83 in 10.0 mi West 17.3 mph 21.9 mph N/A   Mostly Cloudy
4:15 PM 33.8 °F 23.2 °F 26.6 °F 75% 29.85 in 10.0 mi West 17.3 mph 23.0 mph N/A   Clear
4:35 PM 33.8 °F 22.5 °F 24.8 °F 70% 29.86 in 10.0 mi West 19.6 mph 25.3 mph N/A   Clear
4:55 PM 33.8 °F 21.9 °F 26.6 °F 75% 29.86 in 10.0 mi West 21.9 mph 26.5 mph N/A   Clear
5:15 PM 33.8 °F 21.9 °F 24.8 °F 70% 29.87 in 10.0 mi West 21.9 mph 27.6 mph N/A   Clear
5:35 PM 32.0 °F 19.2 °F 26.6 °F 80% 29.87 in 10.0 mi West 23.0 mph 32.2 mph N/A   Clear
5:55 PM 32.0 °F 20.1 °F 24.8 °F 75% 29.88 in 10.0 mi West 19.6 mph 28.8 mph N/A   Clear
6:15 PM 30.2 °F 17.8 °F 24.8 °F 80% 29.89 in 10.0 mi West 19.6 mph - N/A   Clear
6:35 PM 30.2 °F 17.4 °F 24.8 °F 80% 29.89 in 10.0 mi West 20.7 mph 27.6 mph N/A   Clear
6:55 PM 30.2 °F 16.8 °F 21.2 °F 69% 29.90 in 10.0 mi West 23.0 mph 29.9 mph N/A   Clear
7:55 PM 28.4 °F 15.8 °F 19.4 °F 69% 29.95 in 10.0 mi West 18.4 mph - N/A   Clear
8:15 PM 28.4 °F 16.6 °F 19.4 °F 69% 29.95 in 10.0 mi West 16.1 mph - N/A   Clear
8:35 PM 26.6 °F 14.3 °F 19.4 °F 74% 29.95 in 10.0 mi West 16.1 mph - N/A   Clear
8:55 PM 26.6 °F 15.2 °F 17.6 °F 69% 29.95 in 10.0 mi West 13.8 mph - N/A   Clear
9:15 PM 24.8 °F 12.9 °F 17.6 °F 74% 29.96 in 10.0 mi West 13.8 mph - N/A   Clear
9:35 PM 24.8 °F 12.9 °F 17.6 °F 74% 29.98 in 10.0 mi West 13.8 mph - N/A   Clear
10:15 PM 24.8 °F 12.9 °F 17.6 °F 74% 29.99 in 10.0 mi West 13.8 mph - N/A   Clear
10:55 PM 24.8 °F 14.6 °F 15.8 °F 69% 30.00 in 10.0 mi West 10.4 mph - N/A   Clear
11:15 PM 23.0 °F 12.4 °F 15.8 °F 74% 30.01 in 10.0 mi West 10.4 mph - N/A   Clear
11:35 PM 24.8 °F 14.6 °F 15.8 °F 69% 30.01 in 10.0 mi West 10.4 mph - N/A   Clear
11:55 PM 23.0 °F 10.1 °F 15.8 °F 74% 30.01 in 10.0 mi WSW 15.0 mph - N/A   Clear